User: anonymous   Login
Location: Luz Observatory
(34.5000°N, 117.2833°W)
Time: 18:35:59
(UTC-08:00)
Language:

Okean 3 Rocket - Orbit

View from above orbital plane
View from above orbital plane
View from above satellite
View from above satellite

Ground track
Ground track

The orbit data is extracted from the following two-line orbital elements,

1 21398U 91039B   17053.32655279  .00000074  00000-0  67520-5 0  9996
2 21398  82.5257 333.1093 0020964 195.3105 309.8651 14.79650375386928
Epoch (UTC): 22 February 2017 07:50:14
Eccentricity: 0.0020964
inclination: 82.5257°
perigee height: 616 km
apogee height: 645 km
right ascension of ascending node: 333.1093°
argument of perigee: 195.3105°
revolutions per day: 14.79650375
mean anomaly at epoch: 309.8651°
orbit number at epoch: 38692

The dashed part of the orbit path shows where the satellite is in the earth's shadow,  

DLR